Weather History for St. Petersburg, FL

Change the Weather History Date:

Thursday, June 14, 2012

  Actual Average Record
Temperature  
Mean Temperature 82 °F -  
Max Temperature 89 °F 90 °F 96 °F (1964)
Min Temperature 77 °F 75 °F 68 °F (1955)
Cooling Degree Days 18    
Growing Degree Days 32 (Base 50)    
Moisture  
Dew Point 73 °F    
Average Humidity 73    
Maximum Humidity 85    
Minimum Humidity 59    
Precipitation  
Precipitation 0.00 in - - ()
Sea Level Pressure  
Sea Level Pressure 29.96 in    
Wind  
Wind Speed 7 mph (North)    
Max Wind Speed 26 mph    
Max Gust Speed 38 mph    
Visibility 10 miles    
Events Rain , Thunderstorm    
Averages and records for this station are not official NWS values.
T = Trace of Precipitation, MM = Missing Value Source: NWS Daily Summary

Daily Weather History Graph

Daily Weather History Graph

Search for Another Location

Airport:

Trip Planner

Search our weather history database for the weather conditions in past years. The results will help you decide how hot, cold, wet, or windy it might be!

Date:

Astronomy

Jun. 14, 2012 Rise Set
Actual Time 6:34 AM EDT 8:27 PM EDT
Civil Twilight 6:07 AM EDT 8:54 PM EDT
Nautical Twilight 5:35 AM EDT 9:26 PM EDT
Astronomical Twilight 5:01 AM EDT 10:00 PM EDT
Moon 2:59 AM EDT (6/14) 4:23 PM EDT (6/14)
Length of Visible Light 14h 46m
Length of Day
13h 53m
Waning Crescent, 21% of the Moon is Illuminated
Jun 14
Waning Crescent
Jun 19
New
Jun 26
First Quarter
Jul 3
Full
Jul 10
Last Quarter

Hourly Weather History & Observations

Time (EDT) Temp. Heat Index Dew Point Humidity Pressure Visibility Wind Dir Wind Speed Gust Speed Precip Events Conditions
12:53 AM 82.0 °F 88.6 °F 75.0 °F 79% 29.95 in 10.0 mi NNW 3.5 mph - N/A   Clear
1:53 AM 81.0 °F 86.7 °F 75.0 °F 82% 29.94 in 10.0 mi North 4.6 mph - N/A   Clear
2:53 AM 81.0 °F 86.7 °F 75.0 °F 82% 29.92 in 10.0 mi WNW 3.5 mph - N/A   Clear
3:53 AM 81.0 °F 86.7 °F 75.0 °F 82% 29.90 in 10.0 mi West 5.8 mph - N/A   Clear
4:53 AM 81.0 °F 86.7 °F 75.0 °F 82% 29.90 in 10.0 mi NNW 3.5 mph - N/A   Clear
5:53 AM 80.1 °F 85.1 °F 75.0 °F 85% 29.91 in 10.0 mi NNW 4.6 mph - N/A   Clear
6:53 AM 80.1 °F 85.1 °F 75.0 °F 85% 29.93 in 10.0 mi NNW 5.8 mph - N/A   Clear
7:53 AM 81.0 °F 86.7 °F 75.0 °F 82% 29.95 in 10.0 mi NNW 5.8 mph - N/A   Clear
8:53 AM 82.9 °F 89.4 °F 73.9 °F 74% 29.96 in 10.0 mi NNW 6.9 mph - N/A   Partly Cloudy
9:53 AM 84.0 °F 90.2 °F 73.0 °F 69% 29.98 in 10.0 mi NNW 8.1 mph - N/A   Clear
10:53 AM 84.9 °F 91.4 °F 73.0 °F 67% 29.99 in 10.0 mi NNW 4.6 mph - N/A   Scattered Clouds
11:53 AM 87.1 °F 95.4 °F 73.9 °F 65% 29.99 in 10.0 mi Variable 3.5 mph - N/A   Scattered Clouds
12:53 PM 88.0 °F 95.6 °F 73.0 °F 61% 29.99 in 10.0 mi North 8.1 mph - N/A   Mostly Cloudy
1:53 PM 86.0 °F 95.1 °F 75.0 °F 70% 29.98 in 10.0 mi South 9.2 mph - N/A   Overcast
2:09 PM 84.2 °F 92.3 °F 75.2 °F 74% 29.96 in 10.0 mi SSW 15.0 mph 20.7 mph N/A Thunderstorm Thunderstorm
2:26 PM 84.2 °F 92.3 °F 75.2 °F 74% 29.96 in 10.0 mi SW 10.4 mph - N/A   Overcast
2:42 PM 80.6 °F 83.2 °F 68.0 °F 65% 29.95 in 8.0 mi ESE 26.5 mph 38.0 mph 0.00 in Rain , Thunderstorm Light Thunderstorms and Rain
2:53 PM 82.0 °F 84.9 °F 68.0 °F 62% 29.96 in 10.0 mi ESE 15.0 mph - 0.00 in Thunderstorm Thunderstorm
3:14 PM 84.2 °F 88.4 °F 69.8 °F 62% 29.95 in 10.0 mi SSE 3.5 mph - N/A   Mostly Cloudy
3:53 PM 86.0 °F 93.8 °F 73.9 °F 67% 29.93 in 10.0 mi West 9.2 mph - N/A   Clear
4:53 PM 87.1 °F 93.6 °F 72.0 °F 61% 29.93 in 10.0 mi WNW 8.1 mph - N/A   Clear
5:53 PM 87.1 °F 92.8 °F 71.1 °F 59% 29.94 in 10.0 mi Variable 3.5 mph - N/A   Clear
6:53 PM 82.0 °F 86.3 °F 71.1 °F 69% 29.98 in 10.0 mi NE 20.7 mph - N/A   Mostly Cloudy
7:53 PM 80.1 °F 84.2 °F 73.0 °F 79% 29.98 in 10.0 mi ENE 13.8 mph - N/A   Partly Cloudy
8:53 PM 78.1 °F - 72.0 °F 81% 30.00 in 10.0 mi East 9.2 mph - N/A   Partly Cloudy
9:53 PM 78.1 °F - 70.0 °F 76% 29.99 in 10.0 mi ESE 6.9 mph - N/A   Clear
10:53 PM 77.0 °F - 70.0 °F 79% 30.00 in 10.0 mi SE 5.8 mph - N/A   Clear
11:53 PM 78.1 °F - 72.0 °F 81% 30.01 in 10.0 mi East 8.1 mph - N/A   Clear